Terminal Aerodrome Forecast
Issued by NWS

Home | Current Version | Previous Version | Text Only | Print | Product List | Glossary On
Versions: 1 2 3 4 5 6 7 8 9 10 11 12 13
000
FTUS41 KPBZ 252320
TAFZZV
TAF
KZZV 252320Z 2600/2624 18005KT P6SM BKN080
     FM261000 18003KT P6SM VCSH BKN035
     FM261600 20008KT P6SM VCTS BKN040CB=

USA.gov is the U.S. government's official web portal to all federal, state and local government web resources and services.